Kielcza, Poland

2:04 AM CET on February 28, 2017 (GMT +0100)
Pyrzowice

Weather History for EPKT - March, 2013

Change the Weather History Date:

Sunday, March 3, 2013

  Actual Average Record
Temperature  
Mean Temperature 32 °F -  
Max Temperature 35 °F 43 °F 116 °F (2009)
Min Temperature 28 °F 28 °F 3 °F (2005)
Degree Days  
Heating Degree Days 34    
Moisture  
Dew Point 27 °F    
Average Humidity 81    
Maximum Humidity 93    
Minimum Humidity 70    
Precipitation  
Precipitation 0.00 in - - ()
Sea Level Pressure  
Sea Level Pressure 30.01 in    
Wind  
Wind Speed 11 mph ()    
Max Wind Speed 20 mph    
Max Gust Speed -    
Visibility 5.3 miles    
Events Snow    
Averages and records for this station are not official NWS values.
T = Trace of Precipitation, MM = Missing Value Source: Averaged Metar Reports

Daily Weather History Graph

Daily Weather History Graph

Search for Another Location

Airport or City:

Trip Planner

Search our weather history database for the weather conditions in past years. The results will help you decide how hot, cold, wet, or windy it might be!

Date:

Astronomy

Mar. 03, 2013 Rise Set
Actual Time 6:23 AM CET 5:29 PM CET
Civil Twilight 5:50 AM CET 6:01 PM CET
Nautical Twilight 5:13 AM CET 6:39 PM CET
Astronomical Twilight 4:35 AM CET 7:17 PM CET
Moon No Moon Rise 8:44 AM CET (3/3)
Length of Visible Light 12h 10m
Length of Day
11h 05m
Waning Gibbous, 66% of the Moon is Illuminated
Mar 3
Waning Gibbous
Mar 4
Last Quarter
Mar 11
New
Mar 19
First Quarter
Mar 27
Full

Hourly Weather History & Observations

Time (CET) Temp. Windchill Dew Point Humidity Pressure Visibility Wind Dir Wind Speed Gust Speed Precip Events Conditions
12:00 AM 30.2 °F 21.9 °F 24.8 °F 80% 30.01 in 4.3 mi SSW 9.2 mph - N/A   Unknown
12:30 AM 30.2 °F 21.9 °F 24.8 °F 80% 30.01 in 4.3 mi SW 9.2 mph - N/A   Unknown
1:00 AM 30.2 °F 20.8 °F 24.8 °F 80% 30.01 in 3.7 mi SW 11.5 mph - N/A   Unknown
1:30 AM 30.2 °F 21.3 °F 24.8 °F 80% 29.98 in 3.7 mi SSW 10.4 mph - N/A   Unknown
2:00 AM 30.2 °F 21.9 °F 24.8 °F 80% 29.98 in 3.7 mi SW 9.2 mph - N/A   Unknown
2:30 AM 28.4 °F 19.7 °F 24.8 °F 86% 29.98 in 3.7 mi SW 9.2 mph - N/A   Unknown
3:00 AM 28.4 °F 20.4 °F 24.8 °F 86% 29.98 in 3.7 mi SW 8.1 mph - N/A   Unknown
3:30 AM 28.4 °F 19.1 °F 24.8 °F 86% 29.98 in 4.3 mi SW 10.4 mph - N/A   Unknown
4:00 AM 28.4 °F 20.4 °F 24.8 °F 86% 29.95 in 5.0 mi SW 8.1 mph - N/A   Unknown
4:30 AM 28.4 °F 19.7 °F 24.8 °F 86% 29.95 in 5.0 mi SW 9.2 mph - N/A   Unknown
5:00 AM 28.4 °F 19.1 °F 24.8 °F 86% 29.95 in 5.0 mi SW 10.4 mph - N/A   Unknown
5:30 AM 30.2 °F 20.8 °F 24.8 °F 80% 29.95 in - SW 11.5 mph - N/A   Clear
6:00 AM 30.2 °F 20.8 °F 24.8 °F 80% 29.95 in - WSW 11.5 mph - N/A   Clear
6:30 AM 30.2 °F 20.8 °F 24.8 °F 80% 29.95 in 6.2 mi SW 11.5 mph - N/A   Mostly Cloudy
7:00 AM 30.2 °F 20.8 °F 24.8 °F 80% 29.95 in 5.0 mi WSW 11.5 mph - N/A Snow Light Snow
7:30 AM 30.2 °F 20.8 °F 24.8 °F 80% 29.98 in 5.0 mi WSW 11.5 mph - N/A Snow Light Snow
8:00 AM 30.2 °F 19.8 °F 28.4 °F 93% 29.98 in 1.9 mi WSW 13.8 mph - N/A Snow Light Snow
8:30 AM 32.0 °F 21.6 °F 28.4 °F 87% 29.98 in 3.1 mi WSW 15.0 mph - N/A Snow Light Snow
9:00 AM 32.0 °F 21.6 °F 28.4 °F 87% 29.98 in 3.7 mi WSW 15.0 mph - N/A Snow Light Snow
9:30 AM 32.0 °F 20.1 °F 30.2 °F 93% 29.98 in 3.7 mi West 19.6 mph - N/A Snow Light Snow
10:00 AM 32.0 °F 20.8 °F 30.2 °F 93% 29.98 in 4.3 mi West 17.3 mph - N/A Snow Light Snow
10:30 AM 33.8 °F 23.9 °F 30.2 °F 87% 30.01 in 6.2 mi West 15.0 mph - N/A   Mostly Cloudy
11:00 AM 32.0 °F 20.8 °F 30.2 °F 93% 29.98 in 5.0 mi West 17.3 mph - N/A Snow Light Snow Grains
11:30 AM 33.8 °F 23.2 °F 30.2 °F 87% 29.98 in 6.2 mi WSW 17.3 mph - N/A   Mostly Cloudy
12:00 PM 33.8 °F 22.5 °F 28.4 °F 81% 29.98 in 6.2 mi West 19.6 mph - N/A   Mostly Cloudy
12:30 PM 33.8 °F 23.2 °F 28.4 °F 81% 29.98 in 6.2 mi West 17.3 mph - N/A   Mostly Cloudy
1:00 PM 33.8 °F 22.5 °F 26.6 °F 75% 29.98 in 6.2 mi West 19.6 mph - N/A   Mostly Cloudy
1:30 PM 35.6 °F 24.8 °F 26.6 °F 70% 29.98 in 6.2 mi West 19.6 mph - N/A   Mostly Cloudy
2:00 PM 35.6 °F 24.8 °F 26.6 °F 70% 29.98 in 6.2 mi West 19.6 mph - N/A   Mostly Cloudy
2:30 PM 35.6 °F 25.9 °F 26.6 °F 70% 29.98 in 6.2 mi West 16.1 mph - N/A   Mostly Cloudy
3:00 PM 35.6 °F 26.6 °F 26.6 °F 70% 30.01 in 6.2 mi West 13.8 mph - N/A   Mostly Cloudy
3:30 PM 35.6 °F 26.2 °F 26.6 °F 70% 30.01 in 6.2 mi West 15.0 mph - N/A   Mostly Cloudy
4:00 PM 35.6 °F 26.6 °F 26.6 °F 70% 30.01 in 6.2 mi West 13.8 mph - N/A   Mostly Cloudy
4:30 PM 35.6 °F 27.1 °F 26.6 °F 70% 30.01 in 6.2 mi West 12.7 mph - N/A   Mostly Cloudy
5:00 PM 35.6 °F 27.1 °F 26.6 °F 70% 30.01 in 6.2 mi West 12.7 mph - N/A   Mostly Cloudy
5:30 PM 35.6 °F 27.5 °F 26.6 °F 70% 30.04 in 6.2 mi West 11.5 mph - N/A   Mostly Cloudy
6:00 PM 33.8 °F 25.8 °F 26.6 °F 75% 30.04 in 6.2 mi West 10.4 mph - N/A   Mostly Cloudy
6:30 PM 33.8 °F 25.8 °F 26.6 °F 75% 30.04 in 6.2 mi West 10.4 mph - N/A   Mostly Cloudy
7:00 PM 32.0 °F 24.2 °F 26.6 °F 80% 30.06 in 6.2 mi West 9.2 mph - N/A   Mostly Cloudy
7:30 PM 33.8 °F 27.0 °F 28.4 °F 81% 30.06 in 6.2 mi West 8.1 mph - N/A   Mostly Cloudy
8:00 PM 32.0 °F 24.2 °F 28.4 °F 87% 30.06 in 6.2 mi West 9.2 mph - N/A   Mostly Cloudy
8:30 PM 33.8 °F 25.3 °F 28.4 °F 81% 30.06 in 6.2 mi West 11.5 mph - N/A   Mostly Cloudy
9:00 PM 33.8 °F 24.8 °F 28.4 °F 81% 30.09 in 6.2 mi West 12.7 mph - N/A   Mostly Cloudy
9:30 PM 33.8 °F 25.3 °F 28.4 °F 81% 30.09 in 6.2 mi West 11.5 mph - N/A   Mostly Cloudy
10:00 PM 33.8 °F 25.3 °F 28.4 °F 81% 30.09 in 6.2 mi West 11.5 mph - N/A   Mostly Cloudy
10:30 PM 33.8 °F 25.3 °F 28.4 °F 81% 30.09 in 6.2 mi West 11.5 mph - N/A   Mostly Cloudy
11:00 PM 32.0 °F 23.0 °F 26.6 °F 80% 30.09 in 6.2 mi West 11.5 mph - N/A   Mostly Cloudy
11:30 PM 32.0 °F 23.6 °F 28.4 °F 87% 30.09 in 6.2 mi West 10.4 mph - N/A   Mostly Cloudy